{"data":{"norad_id":66064,"intl_designator":"2025-235G","name":"STARLINK-35542","alt_names":[],"object_type":"PAYLOAD","status":"ACTIVE","operator":null,"country":"US","launch_date":"2025-10-19","launch_site_code":"AFETR","launch_vehicle":null,"mission":null,"orbit_class":"UNKNOWN","rcs_meters":null,"size_class":null,"mass_kg":null,"dimensions":null,"purposes":["comms"],"wikipedia_slug":null,"has_3d_model":false,"image_url":null,"decayed_at":null,"tle_current":{"epoch":"2026-09-19T23:07:22.352160Z","epoch_age_seconds":149378,"freshness":"FRESH","line1":"1 66064U 25235G   26262.96345315  .00018062  00000+0  54432-3 0  9990","line2":"2 66064  53.1604  62.3289 0001326  76.4808 283.6343 15.34405765 52677","mean_motion":15.34405765,"eccentricity":0.0001326,"inclination_deg":53.1604,"raan_deg":62.3289,"arg_perigee_deg":76.4808,"mean_anomaly_deg":283.6343,"bstar":0.00054432,"rev_number":5267,"period_min":93.847405480779,"perigee_km":461.77901232205,"apogee_km":463.59319860962,"semimajor_km":6840.8231054658,"source":"CELESTRAK","updated_at":"2026-09-21T09:00:35.794983Z"}}}